Погода в Иджеване

Армения     40°52′40″N   45°08′37″E
темп.,
°C
ветер,
м/с
пор.,
м/с
влажн.,
%
обл.,
%
осадки,
мм/ч
давл.,
гПа
погр.,
м
21 апреля, ср
ср2101:00+14юз2272100 0.0 101517
04:00+13ююз3380100 0.1 101634
07:00+14юз2271100 0.0 101527
10:00+19ссв3161100 0.0 1014368
13:00+22ссв425467 0.0 1012565
16:00+23юз51142100 0.0 1010941
19:00+18зюз2566100 0.8 1012112
22:00+13з2284100 1.3 101612
22 апреля, чт
чт2201:00+12с1188100 0.1 101612
04:00+11ююз0094100 0.1 101710
07:00+11с119547 0.0 101843
10:00+13ссв2289100 0.1 1019457
13:00+13ссв228897 0.5 1019499
16:00+15всв237997 1.5 1016719
19:00+15ссв238394 0.3 1015221
22:00+13ссз129499 0.5 101782
23 апреля, пт
пт2301:00+12с3397100 0.3 1016231
04:00+9с229299 0.9 1019177
07:00+9в118898 0.1 1021123
10:00+11ссв317940 0.1 1020464
13:00+15с336341 0.1 1019891
16:00+17св32544 0.1 1018966
19:00+15ссв12582 0.0 101948
22:00+11ююз33550 0.0 102121
24 апреля, сб
сб2401:00+10вюв015794 0.0 102013
04:00+6ссз119054 0.0 102291
07:00+7зсз118889 0.1 1023202
10:00+9с2286100 0.1 1023448
13:00+13ссв326820 0.0 1020755
16:00+16ссв32595 0.0 1018904
19:00+15зсз006874 0.0 101713
22:00+13юз435542 0.0 101930
25 апреля, вс
вс2501:00+11ююз22510 0.0 101914
04:00+10ююз22581 0.0 101910
07:00+10зюз226787 0.0 102019
10:00+14св316799 0.0 1018562
13:00+17св42618 0.0 1016907
16:00+19всв435551 0.0 1013883
19:00+17всв22685 0.0 101128
22:00+13зюз22785 0.0 101317